Fremont, MI

11:50 PM EDT on August 19, 2019 (GMT -0400)
Fremont

Weather History for KFFX - May, 2019

Change the Weather History Date:

Saturday, May 11, 2019

  Actual Average (KMKG) Record (KMKG)
Temperature  
Mean Temperature 44 °F -  
Max Temperature 55 °F 65 °F 87 °F (1930)
Min Temperature 33 °F 44 °F 30 °F (1949)
Degree Days  
Heating Degree Days 21    
Moisture  
Dew Point 33 °F    
Average Humidity 64    
Maximum Humidity 100    
Minimum Humidity 36    
Precipitation  
Precipitation 0.00 in - - ()
Sea Level Pressure  
Sea Level Pressure 30.11 in    
Wind  
Wind Speed 3 mph (SE)    
Max Wind Speed 9 mph    
Max Gust Speed -    
Visibility 10 miles    
Events      
Averages and records for this station are not official NWS values.
T = Trace of Precipitation, MM = Missing Value Source: NWS Daily Summary

Daily Weather History Graph

Daily Weather History Graph

Search for Another Location

Airport or City:

Astronomy

May. 11, 2019 Rise Set
Actual Time 6:24 AM EDT 8:57 PM EDT
Civil Twilight 5:51 AM EDT 9:29 PM EDT
Nautical Twilight 5:11 AM EDT 10:10 PM EDT
Astronomical Twilight 4:25 AM EDT 10:56 PM EDT
Moon 12:32 PM EDT (5/11) 2:38 AM EDT (5/11)
Length of Visible Light 15h 37m
Length of Day
14h 32m
Waxing Crescent, 46% of the Moon is Illuminated
May 11
Waxing Crescent
May 11
First Quarter
May 18
Full
May 26
Last Quarter
Jun 3
New

Hourly Weather History & Observations

Time (EDT) Temp. Windchill Dew Point Humidity Pressure Visibility Wind Dir Wind Speed Gust Speed Precip Events Conditions
12:15 AM 40.1 °F - 34.3 °F 80% 30.17 in 10.0 mi Calm Calm - N/A   Clear
12:35 AM 39.2 °F - 35.2 °F 86% 30.18 in 10.0 mi Calm Calm - N/A   Clear
12:55 AM 39.0 °F - 35.6 °F 88% 30.18 in 10.0 mi Calm Calm - N/A   Clear
1:15 AM 39.0 °F - 34.3 °F 83% 30.18 in 10.0 mi Calm Calm - N/A   Clear
1:36 AM 38.7 °F - 34.7 °F 86% 30.17 in 10.0 mi Calm Calm - N/A   Clear
1:56 AM 37.6 °F - 34.9 °F 90% 30.17 in 10.0 mi Calm Calm - N/A   Clear
2:15 AM 36.7 °F - 35.1 °F 94% 30.17 in 10.0 mi Calm Calm - N/A   Clear
2:36 AM 35.8 °F - 34.5 °F 95% 30.17 in 10.0 mi Calm Calm - N/A   Clear
2:56 AM 35.6 °F - 34.3 °F 95% 30.16 in 10.0 mi Calm Calm - N/A   Clear
3:15 AM 36.0 °F - 35.1 °F 97% 30.16 in 10.0 mi Calm Calm - N/A   Clear
3:35 AM 36.0 °F - 35.6 °F 99% 30.16 in 10.0 mi Calm Calm - N/A   Clear
3:56 AM 35.8 °F - 35.4 °F 99% 30.16 in 10.0 mi Calm Calm - N/A   Clear
4:16 AM 36.0 °F - 35.6 °F 99% 30.16 in 10.0 mi Calm Calm - N/A   Clear
4:35 AM 35.8 °F - 35.6 °F 99% 30.16 in 10.0 mi Calm Calm - N/A   Clear
4:55 AM 34.9 °F - 34.7 °F 99% 30.17 in 10.0 mi Calm Calm - N/A   Clear
5:16 AM 35.6 °F - 35.4 °F 99% 30.17 in 10.0 mi Calm Calm - N/A   Clear
5:35 AM 35.1 °F - 34.7 °F 99% 30.17 in 10.0 mi Calm Calm - N/A   Clear
5:55 AM 34.5 °F - 34.3 °F 99% 30.18 in 10.0 mi Calm Calm - N/A   Clear
6:16 AM 33.8 °F - 33.8 °F 100% 30.17 in 10.0 mi Calm Calm - N/A   Clear
6:36 AM 34.3 °F - 34.2 °F 99% 30.17 in 10.0 mi Calm Calm - N/A   Clear
6:55 AM 35.2 °F - 34.9 °F 99% 30.17 in 10.0 mi Calm Calm - N/A   Clear
7:16 AM 36.3 °F - 35.4 °F 97% 30.17 in 10.0 mi Calm Calm - N/A   Mostly Cloudy
7:36 AM 37.9 °F - 37.2 °F 97% 30.17 in 10.0 mi Calm Calm - N/A   Overcast
7:56 AM 41.2 °F 38.2 °F 34.7 °F 78% 30.17 in 10.0 mi ESE 4.6 mph - N/A   Scattered Clouds
8:15 AM 42.4 °F 40.7 °F 34.2 °F 72% 30.18 in 10.0 mi ESE 3.5 mph - N/A   Clear
8:35 AM 44.6 °F 41.4 °F 32.7 °F 63% 30.18 in 10.0 mi ESE 5.8 mph - N/A   Clear
8:56 AM 46.4 °F 42.9 °F 32.0 °F 57% 30.18 in 10.0 mi SE 6.9 mph - N/A   Clear
9:15 AM 47.5 °F - 33.1 °F 57% 30.18 in 10.0 mi SE 6.9 mph - N/A   Clear
9:35 AM 49.3 °F - 32.7 °F 53% 30.18 in 10.0 mi SE 5.8 mph - N/A   Clear
9:56 AM 50.4 °F - 31.1 °F 48% 30.17 in 10.0 mi ESE 5.8 mph - N/A   Clear
10:16 AM 51.8 °F - 27.5 °F 39% 30.17 in 10.0 mi ESE 9.2 mph - N/A   Clear
10:35 AM 52.7 °F - 28.0 °F 39% 30.17 in 10.0 mi SE 9.2 mph - N/A   Clear
10:55 AM 52.9 °F - 27.5 °F 38% 30.17 in 10.0 mi SSE 8.1 mph - N/A   Scattered Clouds
11:36 AM 54.0 °F - 27.3 °F 36% 30.16 in 10.0 mi SSE 8.1 mph - N/A   Scattered Clouds
11:55 AM 54.5 °F - 28.8 °F 37% 30.15 in 10.0 mi SSE 6.9 mph - N/A   Clear
12:15 PM 54.5 °F - 29.3 °F 38% 30.15 in 10.0 mi SE 4.6 mph - N/A   Clear
12:36 PM 54.7 °F - 29.8 °F 39% 30.15 in 10.0 mi South 8.1 mph - N/A   Clear
12:55 PM 54.9 °F - 30.6 °F 40% 30.14 in 10.0 mi East 8.1 mph - N/A   Scattered Clouds
1:15 PM 55.2 °F - 30.6 °F 39% 30.13 in 10.0 mi SSE 4.6 mph - N/A   Mostly Cloudy
1:36 PM 55.0 °F - 30.6 °F 39% 30.12 in 10.0 mi ESE 9.2 mph - N/A   Mostly Cloudy
1:55 PM 55.2 °F - 30.4 °F 39% 30.11 in 10.0 mi ESE 6.9 mph - N/A   Mostly Cloudy
2:15 PM 54.9 °F - 30.0 °F 39% 30.11 in 10.0 mi ESE 8.1 mph - N/A   Scattered Clouds
2:36 PM 54.7 °F - 30.2 °F 39% 30.10 in 10.0 mi SSE 5.8 mph - N/A   Mostly Cloudy
2:56 PM 54.5 °F - 29.8 °F 39% 30.10 in 10.0 mi SSE 5.8 mph - N/A   Mostly Cloudy
3:15 PM 54.5 °F - 30.7 °F 40% 30.10 in 10.0 mi SSE 6.9 mph - N/A   Mostly Cloudy
3:36 PM 54.5 °F - 31.3 °F 41% 30.10 in 10.0 mi East 6.9 mph - N/A   Scattered Clouds
3:56 PM 54.0 °F - 30.7 °F 41% 30.08 in 10.0 mi ESE 5.8 mph - N/A   Scattered Clouds
4:16 PM 54.0 °F - 30.7 °F 41% 30.08 in 10.0 mi ESE 8.1 mph - N/A   Clear
4:35 PM 53.8 °F - 31.1 °F 42% 30.08 in 10.0 mi SSE 4.6 mph - N/A   Scattered Clouds
4:56 PM 53.2 °F - 31.5 °F 43% 30.07 in 10.0 mi ESE 4.6 mph - N/A   Mostly Cloudy
5:16 PM 53.1 °F - 30.7 °F 43% 30.07 in 10.0 mi ESE 6.9 mph - N/A   Overcast
5:35 PM 53.2 °F - 31.8 °F 44% 30.06 in 10.0 mi ESE 6.9 mph - N/A   Overcast
5:56 PM 53.1 °F - 32.0 °F 45% 30.06 in 10.0 mi SSE 4.6 mph - N/A   Overcast
6:16 PM 53.1 °F - 31.6 °F 44% 30.06 in 10.0 mi SE 6.9 mph - N/A   Overcast
6:36 PM 52.7 °F - 31.6 °F 45% 30.05 in 10.0 mi SE 5.8 mph - N/A   Overcast
6:55 PM 52.7 °F - 32.0 °F 45% 30.04 in 10.0 mi ESE 4.6 mph - N/A   Overcast
7:15 PM 52.5 °F - 32.4 °F 46% 30.03 in 10.0 mi ESE 4.6 mph - N/A   Mostly Cloudy
7:36 PM 52.0 °F - 32.5 °F 48% 30.03 in 10.0 mi SE 6.9 mph - N/A   Mostly Cloudy
7:55 PM 52.3 °F - 32.9 °F 48% 30.02 in 10.0 mi SE 5.8 mph - N/A   Mostly Cloudy
8:15 PM 51.8 °F - 32.5 °F 48% 30.02 in 10.0 mi SE 6.9 mph - N/A   Mostly Cloudy
8:36 PM 51.1 °F - 32.7 °F 50% 30.01 in 10.0 mi SE 4.6 mph - N/A   Overcast
8:55 PM 48.9 °F - 34.9 °F 58% 30.01 in 10.0 mi South 6.9 mph - N/A   Overcast
9:15 PM 48.2 °F - 35.6 °F 62% 30.01 in 10.0 mi SSE 5.8 mph - N/A   Overcast
9:36 PM 47.5 °F - 36.0 °F 64% 30.01 in 10.0 mi SSE 3.5 mph - N/A   Overcast
9:56 PM 47.3 °F - 36.3 °F 66% 30.01 in 10.0 mi SSE 3.5 mph - N/A   Overcast
10:15 PM 46.9 °F - 36.5 °F 67% 30.02 in 10.0 mi Calm Calm - N/A   Overcast
10:36 PM 46.8 °F - 36.3 °F 67% 30.03 in 10.0 mi Calm Calm - N/A   Overcast
10:56 PM 46.0 °F 44.8 °F 36.9 °F 70% 30.02 in 10.0 mi SE 3.5 mph - N/A   Overcast
11:15 PM 46.4 °F 45.2 °F 37.2 °F 70% 30.01 in 10.0 mi ESE 3.5 mph - N/A   Overcast
11:35 PM 45.9 °F 44.6 °F 37.4 °F 72% 30.01 in 10.0 mi SE 3.5 mph - N/A   Overcast
11:56 PM 45.7 °F - 37.8 °F 74% 30.01 in 10.0 mi Calm Calm - N/A   Overcast